CW5834 Weather Reports


time (UTC)temp
F
wind
direction
speed
knots
gust
knots
rain 1hr
in
rain 24hr
in
rain mn
in
humidity
%
barometer
mb
20190323144522 47 0.0 0.0 0.00 0.00 0.00 47 1028.4
20190323143522 46 0.0 0.0 0.00 0.00 0.00 45 1028.2
20190323142517 46 0.0 0.0 0.00 0.00 0.00 49 1028.1
20190323141520 46 0.0 0.0 0.00 0.00 0.00 48 1028.1
20190323140522 45 0.0 0.0 0.00 0.00 0.00 51 1028.0
20190323135522 44 0.0 0.0 0.00 0.00 0.00 51 1028.0
20190323134522 44 0.0 0.0 0.00 0.00 0.00 54 1027.7
20190323133524 42 0.0 0.0 0.00 0.00 0.00 57 1027.8
20190323132522 39 0.0 0.0 0.00 0.00 0.00 63 1027.5
20190323131517 37 0.0 0.0 0.00 0.00 0.00 68 1027.2
20190323130522 35 0.0 0.0 0.00 0.00 0.00 73 1026.9
20190323125522 33 0.0 0.0 0.00 0.00 0.00 77 1026.6
20190323124522 32 0.0 0.0 0.00 0.00 0.00 79 1026.5
20190323123522 31 0.0 0.0 0.00 0.00 0.00 79 1026.4
20190323122522 31 0.0 0.0 0.00 0.00 0.00 77 1026.1
20190323121522 31 0.0 0.0 0.00 0.00 0.00 77 1025.9
20190323120517 30 0.0 0.0 0.00 0.00 0.00 78 1025.6
20190323115522 30 0.0 0.0 0.00 0.00 0.00 78 1025.4
20190323114522 30 0.0 0.0 0.00 0.00 0.00 77 1025.3
20190323113522 30 0.0 0.0 0.00 0.00 0.00 76 1025.2
20190323112522 31 0.0 0.0 0.00 0.00 0.00 75 1025.1
20190323111522 30 0.0 0.0 0.00 0.00 0.00 75 1024.9
20190323110522 30 0.0 0.0 0.00 0.00 0.00 76 1024.7
20190323105517 30 0.0 0.0 0.00 0.00 0.00 77 1024.5
20190323104522 30 0.0 0.0 0.00 0.00 0.00 77 1024.4
20190323103522 30 0.0 0.0 0.00 0.00 0.00 74 1024.5
20190323102522 31 0.0 0.0 0.00 0.00 0.00 74 1024.2
20190323101521 31 0.0 0.0 0.00 0.00 0.00 74 1024.1
20190323100522 31 0.0 0.0 0.00 0.00 0.00 75 1024.1
20190323095517 30 0.0 0.0 0.00 0.00 0.00 77 1024.0
20190323094517 30 0.0 0.0 0.00 0.00 0.00 77 1024.1
20190323093522 31 0.0 0.0 0.00 0.00 0.00 74 1024.0
20190323092522 32 0.0 0.0 0.00 0.00 0.00 72 1024.0
20190323091521 32 0.0 0.0 0.00 0.00 0.00 71 1024.1
20190323090521 32 0.0 0.0 0.00 0.00 0.00 73 1023.9
20190323085522 32 0.0 0.0 0.00 0.00 0.00 71 1023.9
20190323084516 32 0.0 0.0 0.00 0.00 0.00 69 1023.8
20190323083516 33 0.0 0.0 0.00 0.00 0.00 71 1023.7
20190323082521 34 0.0 0.0 0.00 0.00 0.00 68 1023.9
20190323081521 34 0.0 0.0 0.00 0.00 0.00 66 1023.7
20190323080522 34 0.0 0.0 0.00 0.00 0.00 67 1023.7
20190323075522 35 0.0 0.0 0.00 0.00 0.00 66 1023.5
20190323074521 35 0.0 0.0 0.00 0.00 0.00 64 1023.6
20190323073516 35 0.0 0.0 0.00 0.00 0.00 64 1023.5
20190323072521 36 0.0 0.0 0.00 0.00 0.00 66 1023.6
20190323071521 36 0.0 0.0 0.00 0.00 0.00 63 1023.7
20190323070521 37 0.0 0.0 0.00 0.00 0.00 61 1023.6
20190323065521 37 0.0 0.0 0.00 0.00 0.00 57 1023.6
20190323064519 38 0.0 0.0 0.00 0.00 0.00 56 1023.5
20190323063521 38 0.0 0.0 0.00 0.00 0.00 56 1023.4
20190323062516 40 0.0 2.6 0.00 0.00 0.00 55 1023.4
20190323061521 41 0.0 0.0 0.00 0.00 0.00 50 1023.4
20190323060521 41 0.0 0.0 0.00 0.00 0.00 50 1023.2
20190323055521 41 0.0 1.7 0.00 0.00 0.00 52 1023.2
20190323054521 41 0.0 0.0 0.00 0.00 0.00 52 1023.1
20190323053521 40 0.0 1.7 0.00 0.00 0.00 53 1023.1
20190323052521 41 0.0 0.0 0.00 0.00 0.00 52 1023.1
20190323051516 42 0.0 0.0 0.00 0.00 0.00 53 1023.1
20190323050521 43 292 1.7 5.2 0.00 0.00 0.00 52 1023.1
20190323045521 43 292 2.6 8.7 0.00 0.00 0.00 49 1022.9
20190323044521 44 0.0 0.0 0.00 0.00 0.00 49 1023.0
20190323043521 45 292 1.7 6.1 0.00 0.00 0.00 47 1022.9
20190323042521 45 292 1.7 4.3 0.00 0.00 0.00 46 1022.8
20190323041516 45 292 1.7 5.2 0.00 0.00 0.00 46 1022.8
20190323040516 45 0.0 3.5 0.00 0.00 0.00 47 1022.6
20190323035517 45 22 1.7 6.1 0.00 0.00 0.00 48 1022.5
20190323034521 45 0.0 2.6 0.00 0.00 0.00 49 1022.3
20190323033521 46 22 0.9 3.5 0.00 0.00 0.00 46 1022.2
20190323032521 47 0 2.6 7.0 0.00 0.00 0.00 45 1021.9
20190323031521 47 22 2.6 7.0 0.00 0.00 0.00 46 1021.8
20190323030522 47 22 2.6 7.0 0.00 0.00 0.00 47 1021.7
20190323025521 47 22 2.6 5.2 0.00 0.00 0.00 49 1021.5
20190323024516 47 337 3.5 7.8 0.00 0.00 0.00 49 1021.4
20190323023522 47 22 1.7 5.2 0.00 0.00 0.00 51 1021.2
20190323022521 48 0 0.9 4.3 0.00 0.00 0.00 51 1021.0
20190323021521 49 0.0 3.5 0.00 0.00 0.00 50 1020.8
20190323020521 50 337 0.9 6.1 0.00 0.00 0.00 48 1020.7
20190323015522 50 22 2.6 6.1 0.00 0.00 0.00 47 1020.5
20190323014516 51 337 2.6 6.1 0.00 0.00 0.00 46 1020.3
20190323013521 51 315 2.6 6.1 0.00 0.00 0.00 45 1020.2
20190323012521 52 315 2.6 7.8 0.00 0.00 0.00 43 1019.9
20190323011521 52 315 1.7 8.7 0.00 0.00 0.00 40 1019.8
20190323010521 53 315 6.1 11.3 0.00 0.00 0.00 39 1019.4
20190323005521 53 292 3.5 7.8 0.00 0.00 0.00 38 1019.2
20190323004521 53 270 0.9 4.3 0.00 0.00 0.00 36 1018.9
20190323003516 53 270 2.6 5.2 0.00 0.00 0.00 35 1018.7
20190323002521 54 292 4.3 13.9 0.00 0.00 0.00 34 1018.5
20190323001522 54 270 1.7 4.3 0.00 0.00 0.00 34 1018.4
20190323000521 55 315 2.6 7.0 0.00 0.00 0.00 32 1018.2
20190322235521 56 292 4.3 8.7 0.00 0.00 0.00 30 1018.1
20190322234521 56 315 5.2 9.6 0.00 0.00 0.00 28 1018.0
20190322233516 56 292 5.2 10.4 0.00 0.00 0.00 31 1017.8
20190322232516 56 292 5.2 10.4 0.00 0.00 0.00 30 1017.5
20190322231521 57 315 6.1 13.0 0.00 0.00 0.00 31 1017.4
20190322230521 57 315 5.2 16.5 0.00 0.00 0.00 29 1017.0
20190322225521 58 292 8.7 17.4 0.00 0.00 0.00 26 1017.0
20190322224521 59 292 1.7 8.7 0.00 0.00 0.00 32 1016.8
20190322223521 60 270 6.1 11.3 0.00 0.02 0.00 26 1016.7
20190322222516 60 292 2.6 7.8 0.00 0.18 0.00 26 1016.5
20190322221521 60 292 6.1 13.9 0.00 0.19 0.00 26 1016.4
20190322220521 60 270 6.1 15.6 0.00 0.19 0.00 26 1016.4
20190322215521 61 292 3.5 10.4 0.00 0.19 0.00 27 1016.4
20190322214521 61 337 6.1 13.9 0.00 0.19 0.00 25 1016.2
20190322213521 62 225 3.5 10.4 0.00 0.19 0.00 24 1016.3
20190322212521 61 292 5.2 11.3 0.00 0.19 0.00 27 1016.0
20190322211516 61 292 5.2 13.0 0.00 0.19 0.00 28 1015.9
20190322210521 60 315 8.7 12.2 0.00 0.19 0.00 24 1015.7
20190322205521 61 292 8.7 15.6 0.00 0.19 0.00 23 1015.7
20190322204521 62 292 7.0 17.4 0.00 0.19 0.00 25 1015.9
20190322203521 62 270 5.2 9.6 0.00 0.19 0.00 29 1015.9
20190322202521 61 270 5.2 13.0 0.00 0.19 0.00 28 1015.8
20190322201515 60 225 8.7 17.4 0.00 0.19 0.00 30 1015.6
20190322200516 61 225 5.2 15.6 0.00 0.19 0.00 30 1015.8
20190322195521 61 225 4.3 10.4 0.00 0.19 0.00 28 1015.8
20190322194521 60 292 8.7 20.0 0.00 0.21 0.00 30 1015.8
20190322193521 60 292 7.0 17.4 0.00 0.21 0.00 27 1016.0
20190322192519 60 247 5.2 13.0 0.00 0.21 0.00 31 1016.1
20190322191521 61 270 5.2 12.2 0.00 0.21 0.00 28 1016.0
20190322190515 59 225 7.8 12.2 0.00 0.21 0.00 32 1016.0
20190322185520 60 292 3.5 7.8 0.00 0.21 0.00 33 1016.1
20190322184521 59 292 6.1 13.9 0.00 0.21 0.00 31 1016.4
20190322183521 58 270 5.2 10.4 0.00 0.21 0.00 34 1016.5
20190322182521 58 225 3.5 10.4 0.00 0.21 0.00 42 1016.8
20190322181521 58 202 4.3 13.0 0.00 0.21 0.00 42 1017.0
20190322180516 56 202 7.0 13.9 0.00 0.21 0.00 41 1016.9
20190322175516 56 202 7.0 13.0 0.00 0.21 0.00 43 1016.9
20190322174520 56 225 5.2 11.3 0.00 0.22 0.00 45 1017.0
20190322173520 55 247 7.0 17.4 0.00 0.23 0.00 43 1017.2
20190322172521 54 202 9.6 14.8 0.00 0.23 0.00 47 1017.5
20190322171521 54 247 5.2 13.0 0.00 0.23 0.00 48 1017.6
20190322170520 53 202 7.8 15.6 0.00 0.23 0.00 48 1017.7
20190322165516 52 225 7.0 12.2 0.00 0.23 0.00 48 1017.7
20190322164520 52 202 9.6 15.6 0.00 0.23 0.00 54 1017.8
20190322163520 51 225 7.8 13.9 0.00 0.23 0.00 51 1018.0
20190322162520 51 225 6.1 13.0 0.00 0.23 0.00 60 1018.1
20190322161520 50 202 5.2 11.3 0.00 0.23 0.00 53 1018.3
20190322160521 50 270 4.3 10.4 0.00 0.23 0.00 57 1018.4
20190322155521 50 202 6.1 13.0 0.00 0.23 0.00 58 1018.5
20190322154515 49 225 5.2 18.2 0.00 0.23 0.00 60 1018.6
20190322153520 48 247 3.5 7.8 0.00 0.23 0.00 61 1018.7
20190322152520 48 225 3.5 7.0 0.00 0.23 0.00 60 1018.7
20190322151520 47 247 3.5 8.7 0.00 0.23 0.00 61 1018.5
20190322150520 47 202 4.3 10.4 0.00 0.23 0.00 62 1018.6
20190322145520 46 202 4.3 7.8 0.00 0.23 0.00 62 1018.6